Location: Melara
(45.0500°N, 11.1833°E)
Time: 21:03:20
(UTC+00:00)

Helios 1B rocket - Pass Details

Date: 26 May 2022
Orbit: 569 x 578 km, 98.2° (Epoch: 02 July)

Event Time Altitude Azimuth Distance (km) Brightness Sun altitude
Rises 02:38:52 0° 11° (NNE) 2,785 6.9 -8.9°
Reaches altitude 10° 02:41:01 10° 10° (N) 1,882 5.9 -8.6°
Maximum altitude 02:45:05 74° 285° (WNW) 597 2.4 -8.0°
Drops below altitude 10° 02:49:07 10° 201° (SSW) 1,867 4.5 -7.5°
Enters shadow 02:49:55 - 200° (SSW) 2,202 4.9 -7.4°
